Location: Unspecified
(49.2170°N, 0.0000°E)
Time: 18:43:12
(UTC+00:00)

Transit 4A - Pass Details

Date: 20 June 2019
Orbit: 862 x 982 km, 66.8° (Epoch: 15 July)

Event Time Altitude Azimuth Distance (km) Brightness Sun altitude
Rises 14:06:31 0° 315° (NW) 3,694 11.1 54.4°
Reaches altitude 10° 14:09:59 10° 333° (NNW) 2,747 10.4 54.0°
Maximum altitude 14:14:24 19° 17° (NNE) 2,167 9.8 53.4°
Drops below altitude 10° 14:18:46 10° 60° (ENE) 2,726 10.1 52.8°
Sets 14:22:12 0° 78° (ENE) 3,657 10.7 52.3°
